Winona, MN

6:45 PM CDT on September 17, 2019 (GMT -0500)
Winona Municipal-Conrad

Weather History for KONA - July, 2019

Change the Weather History Date:

Thursday, July 11, 2019

  Actual Average Record
Temperature  
Mean Temperature 72 °F -  
Max Temperature 80 °F 85 °F 94 °F (1976)
Min Temperature 62 °F 64 °F 53 °F (1999)
Cooling Degree Days 7    
Growing Degree Days 22 (Base 50)    
Moisture  
Dew Point 59 °F    
Average Humidity 65    
Maximum Humidity 88    
Minimum Humidity 34    
Precipitation  
Precipitation 0.00 in - - ()
Sea Level Pressure  
Sea Level Pressure 30.00 in    
Wind  
Wind Speed 4 mph (NNW)    
Max Wind Speed 9 mph    
Max Gust Speed -    
Visibility 10 miles    
Events      
Averages and records for this station are not official NWS values.
T = Trace of Precipitation, MM = Missing Value Source: NWS Daily Summary

Daily Weather History Graph

Daily Weather History Graph

Search for Another Location

Airport or City:

Astronomy

Jul. 11, 2019 Rise Set
Actual Time 5:34 AM CDT 8:50 PM CDT
Civil Twilight 4:58 AM CDT 9:25 PM CDT
Nautical Twilight 4:12 AM CDT 10:11 PM CDT
Astronomical Twilight 3:15 AM CDT 11:07 PM CDT
Moon 3:58 PM CDT (7/11) 1:52 AM CDT (7/11)
Length of Visible Light 16h 26m
Length of Day
15h 15m
Waxing Gibbous, 74% of the Moon is Illuminated
Jul 11
Waxing Gibbous
Jul 16
Full
Jul 24
Last Quarter
Jul 31
New
Aug 7
First Quarter

Hourly Weather History & Observations

Time (CDT) Temp. Dew Point Humidity Pressure Visibility Wind Dir Wind Speed Gust Speed Precip Events Conditions
12:55 AM 69.8 °F 66.2 °F 88% 29.93 in 10.0 mi NW 3.5 mph - N/A   Overcast
1:55 AM 69.8 °F 66.2 °F 88% 29.94 in 10.0 mi Calm Calm - N/A   Clear
2:55 AM 69.8 °F 66.2 °F 88% 29.95 in 10.0 mi NW 4.6 mph - N/A   Clear
3:55 AM 69.8 °F 66.2 °F 88% 29.96 in 10.0 mi NW 4.6 mph - N/A   Scattered Clouds
4:55 AM 69.8 °F 66.2 °F 88% 29.99 in 10.0 mi NNW 6.9 mph - N/A   Clear
5:55 AM 69.8 °F 64.4 °F 83% 30.01 in 10.0 mi North 5.8 mph - N/A   Scattered Clouds
6:55 AM 69.8 °F 62.6 °F 78% 30.02 in 10.0 mi North 8.1 mph - N/A   Clear
7:55 AM 69.8 °F 60.8 °F 73% 30.04 in 10.0 mi North 8.1 mph - N/A   Clear
8:55 AM 69.8 °F 60.8 °F 73% 30.05 in 10.0 mi NNE 5.8 mph - N/A   Clear
9:55 AM 75.2 °F 62.6 °F 65% 30.05 in 10.0 mi North 5.8 mph - N/A   Clear
10:55 AM 75.2 °F 60.8 °F 61% 30.05 in 10.0 mi NNW 4.6 mph - N/A   Clear
11:55 AM 77.0 °F 59.0 °F 54% 30.05 in 10.0 mi NNW 5.8 mph - N/A   Clear
12:55 PM 78.8 °F 60.8 °F 54% 30.05 in 10.0 mi North 5.8 mph - N/A   Clear
1:55 PM 78.8 °F 53.6 °F 42% 30.05 in 10.0 mi North 3.5 mph - N/A   Clear
2:55 PM 78.8 °F 50.0 °F 36% 30.03 in 10.0 mi North 9.2 mph - N/A   Clear
3:55 PM 80.6 °F 50.0 °F 34% 30.02 in 10.0 mi NNE 4.6 mph - N/A   Clear
4:55 PM 80.6 °F 50.0 °F 34% 30.01 in 10.0 mi North 4.6 mph - N/A   Clear
5:55 PM 78.8 °F 51.8 °F 39% 30.00 in 10.0 mi WNW 4.6 mph - N/A   Clear
6:55 PM 78.8 °F 51.8 °F 39% 29.99 in 10.0 mi Calm Calm - N/A   Clear
7:55 PM 77.0 °F 53.6 °F 44% 29.99 in 10.0 mi WNW 3.5 mph - N/A   Clear
8:55 PM 71.6 °F 59.0 °F 64% 29.98 in 10.0 mi Calm Calm - N/A   Clear
9:55 PM 69.8 °F 59.0 °F 68% 29.99 in 10.0 mi Calm Calm - N/A   Clear
10:55 PM 64.4 °F 60.8 °F 88% 29.98 in 10.0 mi Calm Calm - N/A   Clear
11:55 PM 62.6 °F 59.0 °F 88% 29.98 in 10.0 mi Calm Calm - N/A   Clear